CZ-6A DEB, 60621

Orbit data source: Space-Track

CZ-6A DEB, 60621 is space debris in LEO originally from a launch on Tue, 06 Aug 2024 UTC launched from the Taiyaun Space Center, China (TSC). Debris objects in space refer to the collection of defunct objects orbiting the Earth. Examples of debris include non-operational satellites, rocket bodies, and fragments generated from explosions, collisions, or faulty payload assembly.

Loading next visibility...
Identifier
60621, 2024-140W
Orbit
LEO
Country
Flag of CNCN / PRC
Related business
Manufacturer
SAST
Mission
Spacecraft
Bus & Motor
Unknown
Mass
Unknown
Launch date (UTC)
2024-08-06 (1 year ago)
Launch vehicle
Unknown
Launch site
Taiyaun Space Center, China (TSC)
Object type
Payload
Rocket body
Debris
Shape & HBR
Unknown shape, 0.5 m
Radar Cross Section
Medium (>0.1 m² and <1 m²)

Expand to show TLE details & history
Last TLE update: 15 hours ago

TLE from 15 hours ago
0 CZ-6A DEB
1 60621U 24140W   25342.88989388  .00008324  00000-0  13515-2 0  9997
2 60621  89.0127 293.1062 0111314 169.5225 190.8350 14.66961401 71336
Epoch: 2025-12-08T21:21Z
TLE epoch observation values (Epoch: 2025-12-08T21:21:26.831Z)
Latitude
-0.00004°
Longitude
-105.13804°
Altitude
751.019 km
Speed
7.438 km/s
True Right ascension
19h 32m 25s
True Declination
0° 00' 00"
Sunlit
Object was in daylight at epoch
Visualization orbit readout
Latitude
Unknown
Longitude
Unknown
Altitude
Unknown
Speed
Unknown
Apparent Right ascension
Unknown
Apparent Declination
Unknown
Sunlit
N/A
Visualization observer readout
Local Sidereal Time
10:13:38
Azimuth
Unknown
Elevation
Unknown
Doppler factor
Unknown
Orbital elements
Apogee altitude
746.098 km
Perigee altitude
589.239 km
Semi-major axis
7,045.806 km
Eccentricity
0.01113
Inclination
89.0127°
RAAN
293.1062°
Arg. of periapsis
169.5225°
True anomaly
190.59845°
Mean anomaly
190.835°
Eccentric anomaly
190.71641°
Mean motion
3.66984 °/min
Orbital period
98.1 mins
BSTAR
0.0013515
Loading maneuver chart data...
Computing Atmospheric mass density...
Loading historical data...
Loading historical data...
Loading historical data...
Loading historical data...
Loading historical data...
Loading historical data...
Loading historical data...

Documentation

Showing up to 5 results
|